Regional Weather Roundup
Issued by NWS

Home | Current Version | Previous Version | Text Only | Print | Product List | Glossary Off
Versions: 1 2 3 4 5 6 7 8 9 10 11 12 13 14 15 16 17 18 19 20 21 22 23 24 25 26 27 28 29 30 31 32 33 34 35 36 37 38 39 40 41 42 43 44 45

000
ASUS45 KSLC 021610
RWRUT

UTAH REGIONAL WEATHER ROUNDUP
NATIONAL WEATHER SERVICE SALT LAKE CITY UT
1000 AM MDT WED SEP 02 2015

UTZ001>011-023>025-021700-

NORTHERN UTAH

CITY           SKY/WX    TMP DP  RH WIND       PRES   REMARKS
BRIGHAM CITY   SUNNY     82  39  21 S16G26    30.00S
HILL AFB       SUNNY     80  47  31 S23G29    30.03F
LOGAN          SUNNY     83  40  21 S16       30.00S
OGDEN          SUNNY     81  46  29 S21G32    30.01S
PROVO AIRPORT  MOSUNNY   73  46  38 E6        30.08F
SALT LAKE CITY MOSUNNY   81  46  29 S18G29    30.01F
VERNAL         SUNNY     68  46  45 CALM      30.18S
WENDOVER       SUNNY     81  37  21 S20       29.98S
HEBER CITY     SUNNY     73  43  33 CALM      30.13F
WEST JORDAN    SUNNY     79  46  31 SE17      30.06S

$$

UTZ012>022-026-027-021700-

SOUTHERN/CENTRAL UTAH

CITY           SKY/WX    TMP DP  RH WIND       PRES   REMARKS
BLANDING       MOSUNNY   72  50  45 CALM      30.31S
BRYCE CANYON   SUNNY     66  46  48 S9        30.33F
CEDAR CITY     MOSUNNY   75  46  35 S17G25    30.17F
DELTA          SUNNY     79  42  26 S16G24    30.09S
HANKSVILLE     SUNNY     64  52  63 CALM      30.16S
MILFORD        SUNNY     78  45  30 S15       30.12S
MOAB/CYNLANDS  SUNNY     74  55  51 E8        30.12F
PRICE          SUNNY     70  45  40 SE3       30.21S
ST GEORGE      SUNNY     84  48  28 SE13      30.02F
KANAB          SUNNY     72  52  49 CALM      30.24S

$$

REGIONAL REPORTS     COLORADO/ARIZONA

CITY           SKY/WX    TMP DP  RH WIND       PRES   REMARKS
CRAIG, CO      SUNNY     71  45  39 E12       30.24S
GRAND JUNCTION SUNNY     72  49  44 SE9       30.17S
RIFLE          SUNNY     63  51  65 CALM      30.24F
MONTROSE       SUNNY     70  49  47 NW3       30.25F
CORTEZ         PTSUNNY   73  49  42 CALM      30.25S
PAGE, AZ       SUNNY     79  49  34 NW5       30.13S
GRAND CANYON   SUNNY     69  50  50 S6        30.30F
KINGMAN        SUNNY     82  47  29 W3        30.06S
FLAGSTAFF      SUNNY     66  54  65 S7        30.34S

$$

REGIONAL REPORTS    NEVADA/IDAHO/WYOMING

CITY           SKY/WX    TMP DP  RH WIND       PRES   REMARKS
LAS VEGAS, NV  MOSUNNY   87  53  31 SE9       29.91R
ELY            PTSUNNY   75  43  31 S17G25    30.15S
ELKO           SUNNY     68  28  22 CALM      30.03F
POCATELLO, ID  SUNNY     78  37  22 W17       29.98R
BURLEY         SUNNY     74  38  27 W9        29.94F
EVANSTON, WY   SUNNY     72  40  31 S22G30    30.20F
ROCK SPRINGS   SUNNY     69  43  38 S6        30.20S
KEMMERER       SUNNY     70  34  26 SW22G32   30.20S

$$


USA.gov is the U.S. government's official web portal to all federal, state and local government web resources and services.